Weather History for Buffalo, WY

Change the Weather History Date:

Friday, February 15, 2013

  Actual Average Record
Temperature  
Mean Temperature 26 °F 28 °F  
Max Temperature 32 °F 38 °F 57 °F (2011)
Min Temperature 20 °F 18 °F -7 °F (2007)
Degree Days  
Heating Degree Days 39 37  
Month to date heating degree days 554 566  
Since 1 July heating degree days 4432 4773  
Cooling Degree Days 0 0  
Month to date cooling degree days 0 0  
Year to date cooling degree days 0 0  
Moisture  
Dew Point 18 °F    
Average Humidity 74    
Maximum Humidity 92    
Minimum Humidity 55    
Precipitation  
Precipitation 0.04 in 0.01 in 0.08 in (2000)
Month to date precipitation 0.11 0.18  
Year to date precipitation 0.59 0.60  
Sea Level Pressure  
Sea Level Pressure 30.28 in    
Wind  
Wind Speed 10 mph (NNW)    
Max Wind Speed 30 mph    
Max Gust Speed 38 mph    
Visibility 4 miles    
Events Fog , Snow    
T = Trace of Precipitation, MM = Missing Value Source: NWS Daily Summary

Daily Weather History Graph

Daily Weather History Graph

Search for Another Location

Airport:

Trip Planner

Search our weather history database for the weather conditions in past years. The results will help you decide how hot, cold, wet, or windy it might be!

Date:

Astronomy

Feb. 15, 2013 Rise Set
Actual Time 7:06 AM MST 5:36 PM MST
Civil Twilight 6:36 AM MST 6:06 PM MST
Nautical Twilight 6:02 AM MST 6:40 PM MST
Astronomical Twilight 5:28 AM MST 7:13 PM MST
Moon 9:28 AM MST (2/15) 11:56 PM MST (2/15)
Length of Visible Light 11h 29m
Length of Day
10h 30m
Waxing Crescent, 31% of the Moon is Illuminated
Feb 15
Waxing Crescent
Feb 17
First Quarter
Feb 25
Full
Mar 4
Last Quarter
Mar 11
New

Hourly Weather History & Observations

Time (MST) Temp. Windchill Dew Point Humidity Pressure Visibility Wind Dir Wind Speed Gust Speed Precip Events Conditions
12:07 AM 19.4 °F 12.8 °F 17.6 °F 93% 30.24 in 1.0 mi WNW 4.6 mph - 0.01 in Snow Light Snow
12:17 AM 19.4 °F 10.4 °F 17.6 °F 93% 30.24 in 1.2 mi WNW 6.9 mph - 0.01 in Snow Light Snow
12:53 AM 19.9 °F 12.1 °F 17.1 °F 89% 30.37 in 1.8 mi Variable 5.8 mph - 0.01 in Snow Light Snow
1:00 AM 21.2 °F - 17.6 °F 86% 30.22 in 2.0 mi Calm Calm - 0.00 in Snow Light Snow
1:11 AM 21.2 °F 12.6 °F 17.6 °F 86% 30.21 in 7.0 mi West 6.9 mph - 0.00 in Snow Light Snow
1:53 AM 23.0 °F 18.4 °F 16.0 °F 74% 30.34 in 10.0 mi NW 3.5 mph - 0.00 in   Overcast
2:53 AM 23.0 °F 13.9 °F 17.1 °F 78% 30.34 in 8.0 mi NNW 8.1 mph 20.7 mph 0.00 in Snow Light Snow
3:45 AM 23.0 °F 9.6 °F 19.4 °F 86% 30.20 in 2.5 mi North 16.1 mph 24.2 mph 0.00 in Snow Light Snow
3:53 AM 23.0 °F 9.2 °F 19.0 °F 85% 30.34 in 2.5 mi North 17.3 mph 23.0 mph 0.00 in Snow Light Snow
4:04 AM 23.0 °F 8.7 °F 19.4 °F 86% 30.21 in 1.8 mi North 18.4 mph 23.0 mph 0.00 in Snow Light Snow
4:13 AM 23.0 °F 9.2 °F 19.4 °F 86% 30.22 in 1.0 mi North 17.3 mph 23.0 mph 0.00 in Snow Light Snow
4:21 AM 23.0 °F 8.3 °F 19.4 °F 86% 30.23 in 0.8 mi North 19.6 mph - 0.00 in Snow Light Snow
4:28 AM 23.0 °F 9.6 °F 21.2 °F 93% 30.23 in 1.0 mi North 16.1 mph 24.2 mph 0.00 in Snow Light Snow
4:36 AM 23.0 °F 12.4 °F 21.2 °F 93% 30.23 in 0.8 mi NNW 10.4 mph 24.2 mph 0.01 in Snow Light Snow
4:47 AM 23.0 °F 12.4 °F 19.4 °F 86% 30.22 in 1.2 mi NNW 10.4 mph 23.0 mph 0.01 in Snow Light Snow
4:53 AM 21.9 °F 11.7 °F 19.0 °F 89% 30.36 in 3.0 mi NNW 9.2 mph - 0.01 in Snow Light Snow
5:07 AM 21.2 °F 13.6 °F 19.4 °F 93% 30.22 in 8.0 mi NNW 5.8 mph - 0.00 in   Overcast
5:37 AM 21.2 °F - 19.4 °F 93% 30.22 in 2.5 mi Calm Calm - 0.00 in Snow Light Snow
5:45 AM 21.2 °F 10.9 °F 19.4 °F 93% 30.23 in 1.0 mi North 9.2 mph - 0.00 in Snow Light Snow
5:53 AM 21.9 °F 12.5 °F 19.9 °F 92% 30.38 in 0.5 mi North 8.1 mph - 0.01 in Fog , Snow Snow
6:31 AM 23.0 °F 8.3 °F 19.4 °F 86% 30.25 in 0.5 mi NNW 19.6 mph 26.5 mph 0.00 in Fog , Snow Snow
6:45 AM 21.2 °F 6.8 °F 19.4 °F 93% 30.25 in 0.8 mi NNW 17.3 mph - 0.00 in Snow Light Snow
6:53 AM 21.9 °F 10.4 °F 19.0 °F 89% 30.40 in 1.0 mi NNW 11.5 mph 24.2 mph 0.00 in Snow Light Snow
6:55 AM 21.2 °F 9.5 °F 19.4 °F 93% 30.25 in 1.2 mi NNW 11.5 mph 24.2 mph 0.00 in Snow Light Snow
7:06 AM 21.2 °F 6.4 °F 19.4 °F 93% 30.26 in 2.0 mi NNW 18.4 mph 25.3 mph 0.00 in Snow Light Snow
7:11 AM 23.0 °F 8.3 °F 19.4 °F 86% 30.25 in 1.0 mi NNW 19.6 mph 25.3 mph 0.00 in Snow Light Snow
7:27 AM 21.2 °F 6.8 °F 19.4 °F 93% 30.25 in 1.2 mi NNW 17.3 mph 26.5 mph 0.01 in Snow Light Snow
7:51 AM 21.2 °F 5.6 °F 17.6 °F 86% 30.26 in 2.0 mi North 20.7 mph 25.3 mph 0.01 in Snow Light Snow
7:53 AM 21.9 °F 6.9 °F 19.0 °F 89% 30.40 in 2.5 mi North 19.6 mph - 0.01 in Snow Light Snow
7:57 AM 21.2 °F 6.4 °F 19.4 °F 93% 30.26 in 1.8 mi North 18.4 mph - 0.00 in Snow Light Snow
8:01 AM 21.2 °F 6.4 °F 19.4 °F 93% 30.26 in 0.8 mi NNW 18.4 mph 24.2 mph 0.00 in Snow Light Snow
8:14 AM 21.2 °F 6.4 °F 19.4 °F 93% 30.27 in 1.2 mi NNW 18.4 mph 25.3 mph 0.00 in Snow Light Snow
8:25 AM 21.2 °F 6.0 °F 19.4 °F 93% 30.26 in 3.0 mi North 19.6 mph 23.0 mph 0.00 in Snow Light Snow
8:30 AM 21.2 °F 6.4 °F 19.4 °F 93% 30.27 in 2.5 mi North 18.4 mph 24.2 mph 0.00 in Snow Light Snow
8:45 AM 23.0 °F 8.3 °F 19.4 °F 86% 30.27 in 3.0 mi North 19.6 mph - 0.00 in Snow Light Snow
8:53 AM 23.0 °F 7.6 °F 19.9 °F 88% 30.41 in 2.0 mi North 21.9 mph - 0.00 in Snow Light Snow
8:58 AM 23.0 °F 8.0 °F 19.4 °F 86% 30.27 in 1.8 mi NNW 20.7 mph - 0.00 in Snow Light Snow
9:01 AM 23.0 °F 8.0 °F 19.4 °F 86% 30.27 in 0.8 mi North 20.7 mph - 0.00 in Snow Light Snow
9:12 AM 23.0 °F 7.2 °F 19.4 °F 86% 30.27 in 1.2 mi North 23.0 mph - 0.00 in Snow Light Snow
9:19 AM 23.0 °F 8.0 °F 19.4 °F 86% 30.27 in 3.0 mi North 20.7 mph 28.8 mph 0.00 in Snow Light Snow
9:30 AM 24.8 °F 10.0 °F 19.4 °F 80% 30.27 in 2.5 mi NNW 21.9 mph - 0.00 in Snow Light Snow
9:45 AM 24.8 °F 10.0 °F 19.4 °F 80% 30.28 in 1.0 mi NNW 21.9 mph 29.9 mph 0.00 in Snow Light Snow
9:53 AM 24.1 °F 8.7 °F 19.9 °F 84% 30.42 in 0.2 mi NNW 23.0 mph 38.0 mph 0.00 in Fog , Snow Snow
10:12 AM 24.8 °F 10.3 °F 19.4 °F 80% 30.28 in 1.2 mi North 20.7 mph 27.6 mph 0.00 in Snow Light Snow
10:24 AM 24.8 °F 10.3 °F 19.4 °F 80% 30.28 in 2.5 mi NNW 20.7 mph 31.1 mph 0.00 in   Overcast
10:27 AM 24.8 °F 10.0 °F 19.4 °F 80% 30.28 in 3.0 mi NNW 21.9 mph 29.9 mph 0.00 in   Haze
10:53 AM 25.0 °F 9.9 °F 18.0 °F 75% 30.42 in 1.8 mi NNW 23.0 mph 31.1 mph 0.00 in Snow Light Snow
11:02 AM 24.8 °F 10.3 °F 19.4 °F 80% 30.28 in 1.2 mi NNW 20.7 mph 31.1 mph 0.00 in Snow Light Snow
11:07 AM 24.8 °F 10.3 °F 17.6 °F 74% 30.28 in 3.0 mi NNW 20.7 mph - 0.00 in Snow Light Snow
11:17 AM 26.6 °F 12.4 °F 17.6 °F 69% 30.29 in 6.0 mi North 21.9 mph 31.1 mph 0.00 in   Overcast
11:28 AM 24.8 °F 10.0 °F 17.6 °F 74% 30.28 in 9.0 mi NNW 21.9 mph - 0.00 in   Overcast
11:53 AM 26.1 °F 15.0 °F 17.1 °F 69% 30.41 in 10.0 mi North 12.7 mph 24.2 mph 0.00 in   Overcast
12:53 PM 28.0 °F - 17.1 °F 63% 30.40 in 10.0 mi Calm Calm - N/A   Mostly Cloudy
1:53 PM 27.0 °F - 16.0 °F 63% 30.36 in 10.0 mi Calm Calm - N/A   Clear
2:53 PM 27.0 °F 18.0 °F 18.0 °F 69% 30.35 in 10.0 mi South 9.2 mph - N/A   Clear
3:53 PM 27.0 °F 17.3 °F 18.0 °F 69% 30.33 in 10.0 mi SSE 10.4 mph - N/A   Overcast
4:53 PM 25.0 °F 16.3 °F 17.1 °F 72% 30.32 in 10.0 mi South 8.1 mph - N/A   Clear
5:53 PM 26.1 °F 20.5 °F 17.1 °F 69% 30.30 in 10.0 mi South 4.6 mph - N/A   Overcast
6:53 PM 26.1 °F 20.5 °F 15.1 °F 63% 30.28 in 10.0 mi South 4.6 mph - N/A   Mostly Cloudy
7:53 PM 21.0 °F 14.6 °F 12.9 °F 71% 30.28 in 10.0 mi SW 4.6 mph - N/A   Partly Cloudy
8:53 PM 27.0 °F 20.5 °F 12.9 °F 56% 30.25 in 10.0 mi SSW 5.8 mph - N/A   Mostly Cloudy
9:53 PM 27.0 °F 19.5 °F 12.9 °F 56% 30.22 in 10.0 mi WSW 6.9 mph - N/A   Clear
10:53 PM 25.0 °F 17.1 °F 14.0 °F 63% 30.22 in 10.0 mi WSW 6.9 mph - N/A   Clear
11:53 PM 26.1 °F 20.5 °F 14.0 °F 60% 30.20 in 10.0 mi South 4.6 mph - N/A   Clear